Location: Saint John
(45.2733°N, 66.0633°W)
Time: 15:06:27
(UTC-03:00)

N. Korean satellite - Visible Passes

Search period start: 19 October 2021 00:00
Search period end: 29 October 2021 00:00
Orbit: 450 x 495 km, 97.3° (Epoch: 18 October)

Date Brightness Start Highest point End Pass type
(mag) Time Alt. Az. Time Alt. Az. Time Alt. Az.
19 Oct 7.4 06:30:44 10° NNE 06:34:20 55° E 06:37:55 10° S visible
20 Oct 9.0 06:03:05 10° NE 06:06:11 25° E 06:09:14 10° SSE visible
21 Oct 10.1 05:36:19 10° ENE 05:37:53 12° E 05:39:26 10° ESE visible
21 Oct 6.8 07:07:49 10° N 07:11:22 49° WNW 07:14:53 10° SSW visible
22 Oct 6.8 06:39:40 10° NNE 06:43:20 73° ESE 06:46:58 10° S visible
23 Oct 8.5 06:11:51 10° NNE 06:15:10 32° E 06:18:27 10° SSE visible
24 Oct 9.8 05:44:38 10° NE 05:46:53 15° E 05:49:06 10° SE visible
24 Oct 7.1 07:16:51 10° N 07:20:15 38° WNW 07:23:38 10° SW visible
25 Oct 6.5 06:48:33 10° NNE 06:52:13 86° WNW 06:55:50 10° SSW visible
25 Oct 10.1 18:59:41 10° WSW 19:01:25 13° W 19:03:10 10° WNW visible
26 Oct 8.0 06:20:35 10° NNE 06:24:04 41° E 06:27:29 10° S visible
27 Oct 9.5 05:53:05 10° NE 05:55:46 19° E 05:58:26 10° SE visible
27 Oct 7.4 07:25:48 10° N 07:29:02 30° WNW 07:32:12 10° SW visible
28 Oct 6.5 06:57:22 10° N 07:00:59 66° WNW 07:04:33 10° SSW visible
28 Oct 10.6 19:09:43 10° W 19:10:16 10° W 19:10:49 10° W visible
